Weather History for KALK - July, 2013

Change the Weather History Date:

Thursday, July 18, 2013

  Actual Average (KFHU) Record (KFHU)
Temperature  
Mean Temperature 72 °F -  
Max Temperature 81 °F 88 °F 101 °F (1989)
Min Temperature 63 °F 69 °F 61 °F (1986)
Cooling Degree Days 7    
Growing Degree Days 22 (Base 50)    
Moisture  
Dew Point 56 °F    
Average Humidity 57    
Maximum Humidity 81    
Minimum Humidity 39    
Precipitation  
Precipitation 0.00 in - - ()
Sea Level Pressure  
Sea Level Pressure 29.91 in    
Wind  
Wind Speed 11 mph (East)    
Max Wind Speed 22 mph    
Max Gust Speed 24 mph    
Visibility 10 miles    
Events      
Averages and records for this station are not official NWS values.
T = Trace of Precipitation, MM = Missing Value Source: NWS Daily Summary

Daily Weather History Graph

Daily Weather History Graph

Search for Another Location

Airport or City:

Trip Planner

Search our weather history database for the weather conditions in past years. The results will help you decide how hot, cold, wet, or windy it might be!

Date:

Astronomy

Jul. 18, 2013 Rise Set
Actual Time 5:29 AM MST 7:26 PM MST
Civil Twilight 5:01 AM MST 7:53 PM MST
Nautical Twilight 4:28 AM MST 8:26 PM MST
Astronomical Twilight 3:53 AM MST 9:01 PM MST
Moon 3:28 PM MST (7/18) 1:18 AM MST (7/18)
Length of Visible Light 14h 51m
Length of Day
13h 57m
Waxing Gibbous, 78% of the Moon is Illuminated
Jul 18
Waxing Gibbous
Jul 22
Full
Jul 29
Last Quarter
Aug 6
New
Aug 14
First Quarter

Hourly Weather History & Observations

Time (MST) Temp. Heat Index Dew Point Humidity Pressure Visibility Wind Dir Wind Speed Gust Speed Precip Events Conditions
12:56 AM 70.0 °F - 55.0 °F 59% 29.93 in 10.0 mi East 11.5 mph - N/A   Scattered Clouds
1:56 AM 68.0 °F - 57.0 °F 68% 29.92 in 10.0 mi NE 4.6 mph - N/A   Clear
2:56 AM 66.0 °F - 57.0 °F 73% 29.91 in 10.0 mi ENE 10.4 mph - N/A   Clear
3:56 AM 64.0 °F - 57.0 °F 78% 29.92 in 10.0 mi NE 8.1 mph - N/A   Clear
4:56 AM 63.0 °F - 57.0 °F 81% 29.93 in 10.0 mi ENE 4.6 mph - N/A   Clear
5:56 AM 63.0 °F - 57.0 °F 81% 29.93 in 10.0 mi ENE 8.1 mph - N/A   Clear
7:56 AM 71.1 °F - 55.9 °F 59% 29.96 in 10.0 mi East 15.0 mph - N/A   Clear
8:56 AM 73.0 °F - 55.9 °F 55% 29.95 in 10.0 mi East 15.0 mph - N/A   Clear
9:56 AM 75.0 °F - 55.9 °F 51% 30.20 in 10.0 mi East 17.3 mph - N/A   Clear
10:56 AM 78.1 °F - 55.0 °F 45% 29.91 in 10.0 mi East 17.3 mph 24.2 mph N/A   Clear
12:56 PM 81.0 °F 80.5 °F 54.0 °F 39% 29.88 in 10.0 mi East 15.0 mph 20.7 mph N/A   Partly Cloudy
1:56 PM 80.1 °F 80.0 °F 54.0 °F 40% 29.86 in 10.0 mi East 12.7 mph - N/A   Unknown
2:56 PM 79.0 °F - 55.0 °F 44% 29.85 in 10.0 mi ESE 10.4 mph - N/A   Scattered Clouds
3:56 PM 81.0 °F 80.7 °F 55.0 °F 41% 29.83 in 10.0 mi ENE 15.0 mph 18.4 mph N/A   Clear
4:56 PM 79.0 °F - 55.0 °F 44% 29.83 in 10.0 mi East 13.8 mph - N/A   Partly Cloudy
5:56 PM 77.0 °F - 55.0 °F 47% 29.85 in 10.0 mi East 21.9 mph - 0.00 in   Clear
6:56 PM 75.0 °F - 54.0 °F 48% 29.86 in 10.0 mi East 12.7 mph - N/A   Partly Cloudy
7:56 PM 73.9 °F - 55.0 °F 52% 29.86 in 10.0 mi East 17.3 mph - N/A   Overcast
8:56 PM 72.0 °F - 57.0 °F 59% 29.88 in 10.0 mi East 13.8 mph 20.7 mph N/A   Scattered Clouds
9:56 PM 71.1 °F - 57.9 °F 63% 29.89 in 10.0 mi ESE 13.8 mph - N/A   Scattered Clouds
10:56 PM 70.0 °F - 57.0 °F 63% 29.89 in 10.0 mi SE 10.4 mph - N/A   Overcast
11:56 PM 70.0 °F - 54.0 °F 57% 29.88 in 10.0 mi SSE 3.5 mph - N/A   Clear